TimePST,TemperatureF,Dew PointF,Humidity,Sea Level PressureIn,VisibilityMPH,Wind Direction,Wind SpeedMPH,Gust SpeedMPH,PrecipitationIn,Events,Conditions,WindDirDegrees,DateUTC
12:53 AM,36.0,34.0,93,30.18,9.0,Calm,Calm,-,N/A,,Scattered Clouds,0,2012-12-28 08:53:00
1:53 AM,35.1,34.0,96,30.17,10.0,Calm,Calm,-,N/A,,Partly Cloudy,0,2012-12-28 09:53:00
3:53 AM,34.0,34.0,100,30.14,9.0,Calm,Calm,-,N/A,,Clear,0,2012-12-28 11:53:00
4:53 AM,35.1,34.0,96,30.12,10.0,Calm,Calm,-,N/A,,Clear,0,2012-12-28 12:53:00
5:53 AM,35.1,34.0,96,30.12,10.0,Calm,Calm,-,N/A,,Clear,0,2012-12-28 13:53:00
6:53 AM,35.1,33.1,92,30.12,10.0,Calm,Calm,-,N/A,,Clear,0,2012-12-28 14:53:00
7:53 AM,36.0,34.0,93,30.12,10.0,Calm,Calm,-,N/A,,Clear,0,2012-12-28 15:53:00
9:53 AM,37.0,35.1,93,30.14,10.0,Calm,Calm,-,N/A,,Overcast,0,2012-12-28 17:53:00
10:53 AM,37.9,36.0,93,30.14,10.0,Calm,Calm,-,N/A,,Overcast,0,2012-12-28 18:53:00
11:53 AM,39.9,35.1,83,30.13,10.0,Calm,Calm,-,N/A,,Overcast,0,2012-12-28 19:53:00
12:53 PM,39.9,36.0,86,30.12,10.0,Calm,Calm,-,0.00,Rain,Light Rain,0,2012-12-28 20:53:00
1:53 PM,41.0,37.0,86,30.12,10.0,Calm,Calm,-,0.00,Rain,Light Rain,0,2012-12-28 21:53:00
2:53 PM,41.0,39.0,93,30.12,9.0,WSW,4.6,-,0.01,Rain,Light Rain,240,2012-12-28 22:53:00
3:53 PM,41.0,39.0,93,30.12,10.0,Calm,Calm,-,0.00,Rain,Light Rain,0,2012-12-28 23:53:00
4:53 PM,41.0,37.9,89,30.12,10.0,Calm,Calm,-,0.01,Rain,Light Rain,0,2012-12-29 00:53:00
5:53 PM,39.9,37.9,93,30.12,10.0,Calm,Calm,-,0.00,,Overcast,0,2012-12-29 01:53:00
6:53 PM,39.9,37.9,93,30.12,10.0,Calm,Calm,-,0.00,Rain,Light Rain,0,2012-12-29 02:53:00
7:53 PM,39.0,37.9,96,30.12,5.0,Calm,Calm,-,0.00,,Overcast,0,2012-12-29 03:53:00
8:40 PM,37.4,37.4,100,30.10,5.0,Calm,Calm,-,N/A,,Overcast,0,2012-12-29 04:40:00
8:49 PM,37.4,37.4,100,30.11,6.0,Calm,Calm,-,N/A,,Overcast,0,2012-12-29 04:49:00
8:53 PM,37.9,37.0,97,30.12,6.0,Calm,Calm,-,N/A,,Overcast,0,2012-12-29 04:53:00
9:53 PM,39.0,37.0,93,30.13,7.0,Calm,Calm,-,N/A,,Overcast,0,2012-12-29 05:53:00
10:53 PM,39.0,37.9,96,30.14,6.0,Calm,Calm,-,N/A,,Overcast,0,2012-12-29 06:53:00
11:53 PM,39.0,37.9,96,30.15,7.0,Calm,Calm,-,0.00,Rain,Light Rain,0,2012-12-29 07:53:00